When you browse on this site, cookies collect data to enhance your experience and personalize the content and advertising you see.
Visit our Privacy Policy to learn more. By continuing to use the site, you agree to this use of cookies and data.
  • In United Kingdom
  • List of Countries
  • For 7 days
  • Water Temperature
  • Weather Map
  • Weather Widgets
  • user-avatar
    Login

    Hourly Weather Punakha

    Today, 24 February, Monday

    Time Temperature Precipitation Wind Pressure Humidity
    00:00 +6°C° 0 mm 1 mps 584 mmHg 90%
    01:00 +5°C° 0.1 mm 1 mps 583 mmHg 89%
    02:00 +5°C° 0.1 mm 1 mps 583 mmHg 88%
    03:00 +5°C° 0.1 mm 1 mps 582 mmHg 87%
    04:00 +5°C° 0 mm 1 mps 582 mmHg 87%
    05:00 +3°C° 0 mm 2 mps 582 mmHg 86%
    06:00 +3°C° 0 mm 2 mps 582 mmHg 81%
    07:00 +5°C° 0 mm 2 mps 583 mmHg 75%
    08:00 +8°C° 0 mm 1 mps 584 mmHg 69%
    09:00 +10°C° 0 mm 1 mps 585 mmHg 63%
    10:00 +12°C° 0.1 mm 1 mps 586 mmHg 58%
    11:00 +13°C° 0.1 mm 2 mps 586 mmHg 53%
    12:00 +14°C° 0.1 mm 2 mps 586 mmHg 48%
    13:00 +13°C° 0.2 mm 3 mps 585 mmHg 50%
    14:00 +13°C° 0.2 mm 3 mps 584 mmHg 52%
    15:00 +12°C° 0.2 mm 3 mps 583 mmHg 54%
    16:00 +10°C° 0.5 mm 2 mps 582 mmHg 67%
    17:00 +9°C° 0.5 mm 1 mps 582 mmHg 79%
    18:00 +7°C° 0.5 mm 1 mps 581 mmHg 91%
    19:00 +7°C° 0.2 mm 1 mps 581 mmHg 91%
    20:00 +7°C° 0.2 mm 1 mps 582 mmHg 91%
    21:00 +6°C° 0.2 mm 1 mps 582 mmHg 90%
    22:00 +6°C° 0 mm 1 mps 582 mmHg 87%
    23:00 +6°C° 0 mm 1 mps 582 mmHg 84%

    Tomorrow, 25 February, Tuesday

    Time Temperature Precipitation Wind Pressure Humidity
    00:00 +4°C° 0 mm 2 mps 582 mmHg 80%
    01:00 +4°C° 0 mm 2 mps 582 mmHg 79%
    02:00 +3°C° 0 mm 2 mps 581 mmHg 78%
    03:00 +3°C° 0 mm 2 mps 581 mmHg 77%
    04:00 +3°C° 0 mm 2 mps 581 mmHg 76%
    05:00 +3°C° 0 mm 2 mps 581 mmHg 75%
    06:00 +3°C° 0 mm 2 mps 581 mmHg 74%
    07:00 +5°C° 0 mm 2 mps 582 mmHg 68%
    08:00 +8°C° 0 mm 1 mps 583 mmHg 62%
    09:00 +10°C° 0 mm 1 mps 585 mmHg 56%
    10:00 +12°C° 0 mm 1 mps 585 mmHg 53%
    11:00 +13°C° 0 mm 2 mps 585 mmHg 50%
    12:00 +14°C° 0 mm 2 mps 585 mmHg 47%
    13:00 +12°C° 0.3 mm 3 mps 584 mmHg 51%
    14:00 +12°C° 0.3 mm 3 mps 583 mmHg 55%
    15:00 +12°C° 0.3 mm 3 mps 582 mmHg 59%
    16:00 +10°C° 0.8 mm 2 mps 582 mmHg 71%
    17:00 +8°C° 0.8 mm 2 mps 581 mmHg 83%
    18:00 +7°C° 0.8 mm 2 mps 580 mmHg 94%
    19:00 +7°C° 1.1 mm 1 mps 581 mmHg 95%
    20:00 +7°C° 1.1 mm 1 mps 581 mmHg 96%
    21:00 +6°C° 1.1 mm 0 mps 582 mmHg 97%
    22:00 +5°C° 0.8 mm 0 mps 582 mmHg 97%
    23:00 +5°C° 0.8 mm 0 mps 582 mmHg 97%

    Day after tomorrow, 26 February, Wednesday

    Time Temperature Precipitation Wind Pressure Humidity
    00:00 +5°C° 0.8 mm 0 mps 582 mmHg 97%
    01:00 +5°C° 0.3 mm 0 mps 581 mmHg 96%
    02:00 +5°C° 0.3 mm 0 mps 581 mmHg 96%
    03:00 +5°C° 0.3 mm 0 mps 581 mmHg 96%
    04:00 +5°C° 0.3 mm 0 mps 581 mmHg 96%
    05:00 +5°C° 0.3 mm 0 mps 580 mmHg 96%
    06:00 +5°C° 0.3 mm 0 mps 580 mmHg 96%
    07:00 +6°C° 0.9 mm 1 mps 581 mmHg 96%
    08:00 +7°C° 0.9 mm 1 mps 581 mmHg 95%
    09:00 +7°C° 0.9 mm 1 mps 582 mmHg 95%
    10:00 +8°C° 0.6 mm 1 mps 582 mmHg 95%
    11:00 +8°C° 0.6 mm 1 mps 581 mmHg 94%
    12:00 +7°C° 0.6 mm 2 mps 581 mmHg 94%
    13:00 +8°C° 0.5 mm 2 mps 581 mmHg 93%
    14:00 +8°C° 0.5 mm 2 mps 580 mmHg 92%
    15:00 +8°C° 0.5 mm 2 mps 579 mmHg 91%
    16:00 +8°C° 0.2 mm 1 mps 579 mmHg 93%
    17:00 +7°C° 0.2 mm 1 mps 579 mmHg 95%
    18:00 +6°C° 0.2 mm 1 mps 579 mmHg 97%
    19:00 +6°C° 0.1 mm 1 mps 580 mmHg 94%
    20:00 +6°C° 0.1 mm 1 mps 580 mmHg 92%
    21:00 +5°C° 0.1 mm 1 mps 580 mmHg 89%
    22:00 +4°C° 0 mm 1 mps 580 mmHg 85%
    23:00 +2°C° 0 mm 2 mps 580 mmHg 81%

    27 February, Thursday

    Time Temperature Precipitation Wind Pressure Humidity
    00:00 +2°C° 0 mm 2 mps 579 mmHg 78%
    01:00 +2°C° 0 mm 2 mps 579 mmHg 77%
    02:00 +1°C° 0 mm 2 mps 579 mmHg 76%
    03:00 +1°C° 0 mm 2 mps 579 mmHg 75%
    04:00 0°C° 0 mm 3 mps 579 mmHg 74%
    05:00 0°C° 0 mm 3 mps 579 mmHg 74%
    06:00 0°C° 0 mm 3 mps 579 mmHg 74%
    07:00 +4°C° 0 mm 2 mps 581 mmHg 69%
    08:00 +8°C° 0 mm 1 mps 582 mmHg 65%
    09:00 +10°C° 0 mm 1 mps 584 mmHg 61%
    10:00 +11°C° 0 mm 1 mps 584 mmHg 59%
    11:00 +13°C° 0 mm 2 mps 585 mmHg 57%
    12:00 +14°C° 0 mm 2 mps 585 mmHg 54%
    13:00 +14°C° 0.1 mm 2 mps 585 mmHg 56%
    14:00 +14°C° 0.1 mm 2 mps 584 mmHg 58%
    15:00 +14°C° 0.1 mm 2 mps 583 mmHg 59%
    16:00 +12°C° 0.1 mm 1 mps 583 mmHg 69%
    17:00 +9°C° 0.1 mm 1 mps 582 mmHg 79%
    18:00 +6°C° 0.1 mm 0 mps 581 mmHg 89%
    19:00 +7°C° 0 mm 1 mps 581 mmHg 82%
    20:00 +5°C° 0 mm 2 mps 582 mmHg 75%
    21:00 +3°C° 0 mm 3 mps 582 mmHg 68%
    22:00 +3°C° 0 mm 3 mps 582 mmHg 65%
    23:00 +3°C° 0 mm 3 mps 582 mmHg 62%

    28 February, Friday

    Time Temperature Precipitation Wind Pressure Humidity
    00:00 +1°C° 0 mm 4 mps 582 mmHg 59%
    01:00 +1°C° 0 mm 4 mps 582 mmHg 59%
    02:00 +1°C° 0 mm 4 mps 581 mmHg 59%
    03:00 +1°C° 0 mm 4 mps 581 mmHg 59%
    04:00 0°C° 0 mm 4 mps 581 mmHg 57%
    05:00 0°C° 0 mm 4 mps 581 mmHg 56%
    06:00 0°C° 0 mm 4 mps 581 mmHg 55%
    07:00 +4°C° 0 mm 3 mps 583 mmHg 51%
    08:00 +8°C° 0 mm 2 mps 584 mmHg 47%
    09:00 +12°C° 0 mm 1 mps 586 mmHg 43%
    10:00 +13°C° 0 mm 1 mps 586 mmHg 41%
    11:00 +15°C° 0 mm 1 mps 586 mmHg 38%
    12:00 +16°C° 0 mm 2 mps 587 mmHg 35%
    13:00 +16°C° 0 mm 2 mps 586 mmHg 37%
    14:00 +16°C° 0 mm 2 mps 585 mmHg 39%
    15:00 +16°C° 0 mm 2 mps 585 mmHg 41%
    16:00 +13°C° 0.1 mm 2 mps 584 mmHg 55%
    17:00 +10°C° 0.1 mm 1 mps 582 mmHg 70%
    18:00 +8°C° 0.1 mm 1 mps 581 mmHg 85%
    19:00 +7°C° 0 mm 1 mps 582 mmHg 81%
    20:00 +5°C° 0 mm 2 mps 582 mmHg 77%
    21:00 +4°C° 0 mm 3 mps 582 mmHg 73%
    22:00 +4°C° 0 mm 3 mps 582 mmHg 71%
    23:00 +3°C° 0 mm 3 mps 582 mmHg 70%

    29 February, Saturday

    Time Temperature Precipitation Wind Pressure Humidity
    00:00 +3°C° 0 mm 3 mps 582 mmHg 68%
    01:00 +3°C° 0 mm 3 mps 581 mmHg 67%
    02:00 +3°C° 0 mm 3 mps 581 mmHg 66%
    03:00 +2°C° 0 mm 3 mps 580 mmHg 65%
    04:00 +2°C° 0 mm 3 mps 580 mmHg 63%
    05:00 +2°C° 0 mm 3 mps 580 mmHg 61%
    06:00 +2°C° 0 mm 3 mps 580 mmHg 59%
    07:00 +6°C° 0 mm 2 mps 582 mmHg 54%
    08:00 +10°C° 0 mm 1 mps 583 mmHg 48%
    09:00 +12°C° 0 mm 0 mps 585 mmHg 42%
    10:00 +14°C° 0 mm 1 mps 585 mmHg 41%
    11:00 +15°C° 0 mm 1 mps 585 mmHg 40%
    12:00 +16°C° 0 mm 2 mps 585 mmHg 39%
    13:00 +16°C° 0 mm 2 mps 584 mmHg 41%
    14:00 +16°C° 0 mm 2 mps 584 mmHg 43%
    15:00 +16°C° 0 mm 2 mps 583 mmHg 46%
    16:00 +13°C° 0.2 mm 2 mps 582 mmHg 60%
    17:00 +11°C° 0.2 mm 1 mps 581 mmHg 74%
    18:00 +8°C° 0.2 mm 1 mps 580 mmHg 88%
    19:00 +8°C° 0.4 mm 1 mps 581 mmHg 88%
    20:00 +8°C° 0.4 mm 1 mps 581 mmHg 88%
    21:00 +7°C° 0.4 mm 2 mps 582 mmHg 88%
    22:00 +6°C° 0.2 mm 2 mps 582 mmHg 86%
    23:00 +6°C° 0.2 mm 2 mps 582 mmHg 84%
    Show more